Regional Weather Roundup
Issued by NWS

Home | Current Version | Previous Version | Text Only | Print | Product List | Glossary On
Versions: 1 2 3 4 5 6 7 8 9 10 11 12 13 14 15 16 17 18 19 20 21 22 23 24 25 26 27 28 29 30 31 32 33 34 35 36 37 38 39 40 41 42 43 44 45 46 47 48 49 50
000
ASUS43 KDMX 061008
RWRIA

WEATHER ROUNDUP FOR IOWA
NATIONAL WEATHER SERVICE DES MOINES IA
400 AM CST SAT FEB 06 2016

NOTE: "FAIR" INDICATES FEW OR NO CLOUDS BELOW 12,000 FEET WITH NO
SIGNIFICANT WEATHER AND/OR OBSTRUCTIONS TO VISIBILITY.

* - THESE STATIONS ARE NOT NWS STATIONS...THUS NOT UNDER NWS
QUALITY CONTROL.  THEY ALSO DO NOT REPORT WEATHER SUCH
AS PRECIPITATION OR FOG.

IAZ001>003-012>014-020>022-031>034-043>046-061100-
   NORTHWEST IOWA

CITY           SKY/WX    TMP DP  RH WIND       PRES   REMARKS
CARROLL *      CLOUDY    30  28  93 W7        30.22S FOG     WCI  23
CHEROKEE *     FOG       25  25 100 SW7       30.21F VSB 1/2 WCI  17
DENISON *      CLOUDY    28  28 100 W6        30.21F FOG     WCI  22
LE MARS *      FOG       21  21 100 S6        30.22F VSB 0   WCI  14
ORANGE CITY *  SNOW      19  19 100 CALM      30.19S VSB 0
SHELDON *      FOG       21  21 100 SW8       30.17F VSB 0   WCI  12
SIOUX CITY     HAZE      19  14  81 CALM      30.23F VSB 1/4
SPENCER        CLOUDY    21  18  88 W3        30.19S FOG
STORM LAKE *   FOG       25  25 100 W12       30.20S VSB 0   WCI  14
$$

IAZ055>058-069>071-079>083-090>094-061100-
   SOUTHWEST IOWA

CITY           SKY/WX    TMP DP  RH WIND       PRES   REMARKS
ATLANTIC *     FOG       28  28 100 CALM      30.24S VSB 1/4
AUDUBON *      FOG       28  27  93 CALM      30.23S VSB 1
CLARINDA *     CLOUDY    28  30 100 CALM      30.27S FOG
COUNCIL BLFS * CLOUDY    30  30 100 CALM      30.24F
CRESTON *      CLOUDY    25  25 100 W5        30.23F WCI  19
HARLAN  *      CLOUDY    28  28 100 NW6       30.27S WCI  22
LAMONI         CLEAR     25  20  81 W5        30.23S WCI  19
RED OAK *      CLOUDY    30  30 100 NW6       30.26S WCI  24
SHENANDOAH *   CLOUDY    32  32 100 VRB6      30.27S WCI  26
$$

IAZ047>049-059>061-072>074-084-061100-
   CENTRAL IOWA

CITY           SKY/WX    TMP DP  RH WIND       PRES   REMARKS
AMES           CLOUDY    30  28  92 W7        30.23S WCI  23
ANKENY *       CLOUDY    30  30 100 CALM      30.24S
BOONE *        CLOUDY    30  30 100 W6        30.20S FOG     WCI  24
CHARITON *     CLEAR     25  21  86 SW5       30.23S WCI  19
DES MOINES     CLOUDY    30  26  85 SW5       30.24S WCI  25
GRINNELL*      CLOUDY    30  27  86 SW6       30.23S WCI  24
KNOXVILLE *    CLEAR     25  21  86 SW3       30.22F
MARSHALLTOWN   CLOUDY    29  26  89 SW9       30.21F WCI  20
NEWTON *       CLOUDY    28  28 100 SW6       30.23S WCI  22
PELLA *        CLEAR     27  23  86 CALM      30.26S
$$

IAZ004>006-015-016-023>025-035-036-061100-
   NORTH CENTRAL IOWA

CITY           SKY/WX    TMP DP  RH WIND       PRES   REMARKS
ALGONA *       CLOUDY    27  27 100 W12       30.19S FOG     WCI  16
CLARION *      CLOUDY    28  27  93 W12       30.20S FOG     WCI  18
ESTHERVILLE    FOG       23  22  96 SW13      30.17S VSB 1/2 WCI  11
FORT DODGE *   CLOUDY    28  25  86 W7        30.21F WCI  21
MASON CITY     CLOUDY    27  25  92 W12       30.20S FOG     WCI  17
FOREST CITY *  CLOUDY    27  27 100 W7        30.19S FOG     WCI  19
WEBSTER CITY * CLOUDY    30  28  93 W8        30.19S WCI  23
IOWA FALLS *   CLOUDY    30  28  93 W9        30.21S FOG     WCI  22
$$

IAZ007>011-017>019-026>030-037>042-050>054-066-061100-
   NORTHEAST IOWA

CITY           SKY/WX    TMP DP  RH WIND       PRES   REMARKS
CEDAR RAPIDS   CLOUDY    28  25  88 S6        30.23S WCI  22
CHARLES CITY * CLOUDY    27  27 100 SW7       30.20S FOG     WCI  19
CLINTON *      CLEAR     22  20  92 S6        30.27S WCI  14
DECORAH *      CLOUDY    27  27 100 SW6       30.18S WCI  20
DUBUQUE        CLOUDY    26  22  84 S7        30.22F WCI  18
MONTICELLO *   CLOUDY    28  23  80 SW6       30.23F WCI  22
OELWEIN *      CLOUDY    27  27 100 SW10      30.21S WCI  17
WATERLOO       CLOUDY    28  25  88 SW8       30.21F WCI  20
$$

IAZ064-065-067-068-078-061100-
   EAST CENTRAL IOWA

CITY           SKY/WX    TMP DP  RH WIND       PRES   REMARKS
DAVENPORT      CLOUDY    28  22  78 SW7       30.26F WCI  21
IOWA CITY      CLOUDY    29  23  78 CALM      30.27S
MT. PLEASANT * CLEAR     30  25  80 S5        30.25F WCI  25
MUSCATINE *    CLOUDY    28  25  86 CALM      30.27F
QUAD CITIES    PTCLDY    28  21  75 SW6       30.25F WCI  22
$$

IAZ062-063-075>077-085>089-095>099-061100-
   SOUTHEAST IOWA

CITY           SKY/WX    TMP DP  RH WIND       PRES   REMARKS
BURLINGTON     PTCLDY    27  23  85 S5        30.26F WCI  22
FAIRFIELD *    CLEAR     27  19  74 S5        30.25S WCI  21
FORT MADISON * CLEAR     27  23  86 S5        30.27F WCI  21
KEOKUK *       CLEAR     27  21  80 CALM      30.26F
OSKALOOSA *      N/A     23  21  93 S7        30.24F WCI  15
CENTERVILLE *    N/A    N/A N/A N/A MISG        N/A
OTTUMWA        CLEAR     24  20  84 S5        30.24F WCI  18
WASHINGTON *   MOCLDY    27  23  86 S7        30.26F WCI  19
$$

ABBREVIATIONS USED IN REMARKS
   TC - TEMPERATURES IN CELSIUS
  WCI - WIND CHILL INDEX
   HX - HEAT INDEX
  VSB - VISIBILITY
$$





USA.gov is the U.S. government's official web portal to all federal, state and local government web resources and services.